When you browse on this site, cookies collect data to enhance your experience and personalize the content and advertising you see.
Visit our Privacy Policy to learn more. By continuing to use the site, you agree to this use of cookies and data.
  • In Slovakia
  • List of Countries
  • For 7 days
  • Water Temperature
  • Satellite Maps
  • Weather Map
  • Weather Widgets
  • user-avatar
    Login

    Hourly Weather Golden Sands

    Today, 25 June, Tuesday

    Time Temperature Precipitation Wind Pressure Humidity
    00:00 +25°C° 0 mm 5 mps 761 mmHg 75%
    01:00 +23°C° 0 mm 6 mps 761 mmHg 73%
    02:00 +23°C° 0 mm 7 mps 761 mmHg 70%
    03:00 +23°C° 0 mm 7 mps 761 mmHg 71%
    04:00 +23°C° 0 mm 7 mps 761 mmHg 71%
    05:00 +23°C° 0 mm 8 mps 761 mmHg 71%
    06:00 +24°C° 0 mm 8 mps 761 mmHg 69%
    07:00 +27°C° 0 mm 9 mps 761 mmHg 66%
    08:00 +28°C° 0 mm 9 mps 761 mmHg 64%
    09:00 +28°C° 0.7 mm 9 mps 761 mmHg 65%
    10:00 +28°C° 0.7 mm 10 mps 761 mmHg 66%
    11:00 +29°C° 0.7 mm 10 mps 761 mmHg 67%
    12:00 +29°C° 0.5 mm 10 mps 761 mmHg 65%
    13:00 +29°C° 0.5 mm 10 mps 761 mmHg 62%
    14:00 +31°C° 0.5 mm 10 mps 762 mmHg 59%
    15:00 +29°C° 0.1 mm 9 mps 761 mmHg 63%
    16:00 +29°C° 0.1 mm 8 mps 761 mmHg 66%
    17:00 +29°C° 0.1 mm 8 mps 761 mmHg 69%
    18:00 +28°C° 0.4 mm 7 mps 761 mmHg 72%
    19:00 +27°C° 0.4 mm 7 mps 761 mmHg 75%
    20:00 +26°C° 0.4 mm 7 mps 762 mmHg 78%
    21:00 +26°C° 1.1 mm 7 mps 762 mmHg 80%
    22:00 +24°C° 1.1 mm 8 mps 762 mmHg 83%
    23:00 +23°C° 1.1 mm 8 mps 762 mmHg 86%

    Tomorrow, 26 June, Wednesday

    Time Temperature Precipitation Wind Pressure Humidity
    00:00 +23°C° 0.6 mm 8 mps 762 mmHg 86%
    01:00 +23°C° 0.6 mm 9 mps 762 mmHg 85%
    02:00 +23°C° 0.6 mm 9 mps 762 mmHg 84%
    03:00 +23°C° 1.3 mm 9 mps 762 mmHg 85%
    04:00 +23°C° 1.3 mm 10 mps 762 mmHg 87%
    05:00 +23°C° 1.3 mm 10 mps 762 mmHg 88%
    06:00 +24°C° 1.4 mm 10 mps 762 mmHg 83%
    07:00 +27°C° 1.4 mm 10 mps 763 mmHg 79%
    08:00 +28°C° 1.4 mm 9 mps 763 mmHg 74%
    09:00 +28°C° 1.3 mm 10 mps 763 mmHg 73%
    10:00 +28°C° 1.3 mm 10 mps 763 mmHg 73%
    11:00 +28°C° 1.3 mm 11 mps 763 mmHg 72%
    12:00 +28°C° 0.5 mm 11 mps 763 mmHg 72%
    13:00 +28°C° 0.5 mm 11 mps 763 mmHg 72%
    14:00 +28°C° 0.5 mm 11 mps 763 mmHg 73%
    15:00 +28°C° 0.3 mm 11 mps 763 mmHg 72%
    16:00 +28°C° 0.3 mm 11 mps 763 mmHg 71%
    17:00 +28°C° 0.3 mm 11 mps 763 mmHg 70%
    18:00 +27°C° 0 mm 10 mps 763 mmHg 72%
    19:00 +26°C° 0 mm 10 mps 763 mmHg 75%
    20:00 +26°C° 0 mm 9 mps 763 mmHg 77%
    21:00 +24°C° 0 mm 8 mps 763 mmHg 79%
    22:00 +24°C° 0 mm 7 mps 763 mmHg 81%
    23:00 +23°C° 0 mm 7 mps 763 mmHg 82%

    Day after tomorrow, 27 June, Thursday

    Time Temperature Precipitation Wind Pressure Humidity
    00:00 +23°C° 0 mm 7 mps 762 mmHg 82%
    01:00 +22°C° 0 mm 7 mps 762 mmHg 82%
    02:00 +22°C° 0 mm 7 mps 762 mmHg 82%
    03:00 +22°C° 0 mm 7 mps 762 mmHg 82%
    04:00 +21°C° 0 mm 7 mps 762 mmHg 82%
    05:00 +21°C° 0 mm 7 mps 761 mmHg 82%
    06:00 +22°C° 0 mm 7 mps 761 mmHg 75%
    07:00 +24°C° 0 mm 7 mps 761 mmHg 68%
    08:00 +27°C° 0 mm 6 mps 761 mmHg 61%
    09:00 +28°C° 0 mm 6 mps 761 mmHg 56%
    10:00 +29°C° 0 mm 5 mps 761 mmHg 51%
    11:00 +30°C° 0 mm 4 mps 760 mmHg 46%
    12:00 +30°C° 0 mm 4 mps 760 mmHg 46%
    13:00 +32°C° 0 mm 4 mps 760 mmHg 47%
    14:00 +32°C° 0 mm 4 mps 759 mmHg 47%
    15:00 +30°C° 0 mm 3 mps 759 mmHg 50%
    16:00 +30°C° 0 mm 3 mps 758 mmHg 52%
    17:00 +29°C° 0 mm 2 mps 758 mmHg 55%
    18:00 +28°C° 0 mm 3 mps 757 mmHg 60%
    19:00 +26°C° 0 mm 3 mps 757 mmHg 66%
    20:00 +25°C° 0 mm 4 mps 757 mmHg 72%
    21:00 +25°C° 0 mm 4 mps 757 mmHg 73%
    22:00 +25°C° 0 mm 4 mps 757 mmHg 74%
    23:00 +25°C° 0 mm 5 mps 757 mmHg 75%

    28 June, Friday

    Time Temperature Precipitation Wind Pressure Humidity
    00:00 +23°C° 0 mm 4 mps 756 mmHg 74%
    01:00 +23°C° 0 mm 4 mps 756 mmHg 73%
    02:00 +23°C° 0 mm 4 mps 756 mmHg 72%
    03:00 +23°C° 0 mm 5 mps 756 mmHg 75%
    04:00 +23°C° 0 mm 6 mps 756 mmHg 79%
    05:00 +22°C° 0 mm 7 mps 755 mmHg 83%
    06:00 +23°C° 0 mm 7 mps 756 mmHg 78%
    07:00 +24°C° 0 mm 8 mps 756 mmHg 74%
    08:00 +26°C° 0 mm 8 mps 756 mmHg 69%
    09:00 +27°C° 0 mm 8 mps 756 mmHg 66%
    10:00 +27°C° 0 mm 8 mps 756 mmHg 62%
    11:00 +28°C° 0 mm 8 mps 757 mmHg 59%
    12:00 +27°C° 0 mm 8 mps 757 mmHg 61%
    13:00 +24°C° 0 mm 8 mps 757 mmHg 63%
    14:00 +23°C° 0 mm 8 mps 757 mmHg 65%
    15:00 +24°C° 0 mm 8 mps 757 mmHg 63%
    16:00 +26°C° 0 mm 7 mps 757 mmHg 60%
    17:00 +27°C° 0 mm 6 mps 757 mmHg 57%
    18:00 +26°C° 0 mm 6 mps 757 mmHg 58%
    19:00 +24°C° 0 mm 7 mps 758 mmHg 59%
    20:00 +23°C° 0 mm 7 mps 758 mmHg 60%
    21:00 +23°C° 0 mm 8 mps 758 mmHg 57%
    22:00 +22°C° 0 mm 9 mps 759 mmHg 54%
    23:00 +22°C° 0 mm 10 mps 759 mmHg 51%

    29 June, Saturday

    Time Temperature Precipitation Wind Pressure Humidity
    00:00 +21°C° 0 mm 9 mps 759 mmHg 54%
    01:00 +19°C° 0 mm 9 mps 759 mmHg 57%
    02:00 +18°C° 0 mm 9 mps 759 mmHg 60%
    03:00 +17°C° 0 mm 8 mps 759 mmHg 62%
    04:00 +17°C° 0 mm 8 mps 759 mmHg 64%
    05:00 +17°C° 0 mm 7 mps 759 mmHg 66%
    06:00 +18°C° 0 mm 7 mps 760 mmHg 62%
    07:00 +21°C° 0 mm 6 mps 760 mmHg 57%
    08:00 +22°C° 0 mm 6 mps 760 mmHg 53%
    09:00 +23°C° 0 mm 5 mps 760 mmHg 49%
    10:00 +26°C° 0 mm 4 mps 760 mmHg 44%
    11:00 +27°C° 0 mm 3 mps 760 mmHg 40%
    12:00 +27°C° 0 mm 3 mps 760 mmHg 42%
    13:00 +27°C° 0 mm 3 mps 759 mmHg 43%
    14:00 +27°C° 0 mm 3 mps 759 mmHg 45%
    15:00 +26°C° 0 mm 3 mps 759 mmHg 48%
    16:00 +26°C° 0 mm 2 mps 759 mmHg 51%
    17:00 +25°C° 0 mm 2 mps 759 mmHg 54%
    18:00 +24°C° 0.5 mm 3 mps 759 mmHg 63%
    19:00 +21°C° 0.5 mm 3 mps 759 mmHg 71%
    20:00 +20°C° 0.5 mm 3 mps 759 mmHg 79%
    21:00 +19°C° 3 mm 5 mps 759 mmHg 77%
    22:00 +17°C° 3 mm 6 mps 760 mmHg 74%
    23:00 +16°C° 3 mm 8 mps 760 mmHg 72%

    30 June, Sunday

    Time Temperature Precipitation Wind Pressure Humidity
    00:00 +16°C° 0 mm 8 mps 760 mmHg 70%
    01:00 +16°C° 0 mm 9 mps 760 mmHg 69%
    02:00 +15°C° 0 mm 9 mps 760 mmHg 67%
    03:00 +15°C° 0 mm 9 mps 761 mmHg 71%
    04:00 +13°C° 0 mm 9 mps 761 mmHg 74%
    05:00 +12°C° 0 mm 9 mps 761 mmHg 78%
    06:00 +15°C° 0 mm 9 mps 761 mmHg 72%
    07:00 +17°C° 0 mm 9 mps 762 mmHg 65%
    08:00 +18°C° 0 mm 8 mps 762 mmHg 59%
    09:00 +20°C° 0 mm 8 mps 762 mmHg 54%
    10:00 +22°C° 0 mm 8 mps 762 mmHg 50%
    11:00 +23°C° 0 mm 8 mps 763 mmHg 46%
    12:00 +23°C° 0 mm 8 mps 763 mmHg 45%
    13:00 +23°C° 0 mm 8 mps 763 mmHg 44%
    14:00 +24°C° 0 mm 7 mps 763 mmHg 43%
    15:00 +24°C° 0 mm 7 mps 762 mmHg 43%
    16:00 +23°C° 0 mm 7 mps 762 mmHg 44%
    17:00 +23°C° 0 mm 7 mps 762 mmHg 44%
    18:00 +22°C° 0 mm 7 mps 762 mmHg 47%
    19:00 +21°C° 0 mm 7 mps 763 mmHg 49%
    20:00 +20°C° 0 mm 6 mps 763 mmHg 52%
    21:00 +19°C° 0 mm 6 mps 763 mmHg 55%
    22:00 +17°C° 0 mm 6 mps 763 mmHg 58%
    23:00 +16°C° 0 mm 5 mps 763 mmHg 61%
    Show more